OpenBCM V1.13 (Linux)

Packet Radio Mailbox

DB0FHN

[JN59NK Nuernberg]

 Login: GUEST





  
LU1HVK > KEP      01.09.19 18:35l 244 Lines 12026 Bytes #999 (0) @ WW
BID : 30766_LU1HVK
Read: DJ6UX GUEST
Subj: TLE 01 09
Path: DB0FHN<OE2XZR<OE5XBL<F1OYP<F1OYP<VE2PKT<N3HYM<LU3DVN<LU9HGS<LU1HVK
Sent: 190901/1603Z 30766@LU1HVK.2594.CBA.ARG.SA LinBPQ6.0.18

                         _    _   _ _ _   ___     ___  __
                        | |  | | | / | | | \ \   / / |/ /
                        | |  | | | | | |_| |\ \ / /| ' /
                        | |__| |_| | |  _  | \ V / | . \
                        |_____\___/|_|_| |_|  \_/  |_|\_\

     BBS/NODO - CORDOBA (LEONES-FF87UH) - LU1HVK-4 NODO - LU1HVK-3 APRS

+----------------------------------------------------------------------------+
OSCAR 7
1  7530U 74089B   19243.91236223 -.00000051 +00000-0 -34770-4 0  9993
2  7530 101.7512 210.8324 0011859 202.5681 178.6734 12.53639532049583
OSCAR 11 (UoSAT 2)
1 14781U 84021B   19244.11737944  .00000068  00000-0  14512-4 0  9993
2 14781  97.6081 265.3023 0009991  77.8971 282.3362 14.83103013909796
OSCAR 19 (LUSAT)
1 20442U 90005G   19243.89521291 -.00000017  00000-0  10127-4 0  9996
2 20442  98.6521 185.7859 0010723 293.6058  66.4000 14.32931348547004
EYESAT A
1 22825U 93061C   19243.94435314 -.00000024 +00000-0 +87239-5 0  9991
2 22825 098.9085 234.2934 0009101 137.2522 222.9368 14.30065190352292
ITAMSAT
1 22826U 93061D   19243.92872341 -.00000006 +00000-0 +15438-4 0  9996
2 22826 098.9025 234.2595 0009771 127.1619 233.0456 14.30399190352514
RADIO ROSTO
1 23439U 94085A   19243.83867822 -.00000054 +00000-0 -34367-3 0  9997
2 23439 064.8200 356.2186 0145756 098.8583 262.8875 11.27568374016259
JAS 2
1 24278U 96046B   19244.38226416 -.00000035  00000-0 -93566-6 0  9995
2 24278  98.5484  27.6888 0351082  46.4915 316.4842 13.53093129137904
TECHSAT 1B
1 25397U 98043D   19243.90636608 -.00000014  00000-0  13250-4 0  9998
2 25397  98.6916 183.1638 0001636 138.0373 222.0931 14.23669614 98433
ISS (ZARYA)
1 25544U 98067A   19244.56006944  .00070108  00000-0  12058-2 0  9998
2 25544  51.6439 342.4273 0007744 352.8735 201.6312 15.50430834187105
PCSAT
1 26931U 01043C   19243.81940825 -.00000040 +00000-0 +16410-4 0  9996
2 26931 067.0513 172.3943 0007476 273.0873 086.9372 14.30550625935506
SAUDISAT 1C
1 27607U 02058C   19244.43745736 -.00000031  00000-0  16538-4 0  9998
2 27607  64.5547 181.0691 0078033 242.1245 117.1938 14.75567853898064
CUTE-1
1 27844U 03031E   19244.01716598  .00000035  00000-0  35314-4 0  9997
2 27844  98.6849 251.1208 0009974 169.2981 190.8411 14.22191923838855
CUBESAT XI 4
1 27848U 03031J   19243.81936344  .00000021  00000-0  29580-4 0  9994
2 27848  98.6925 251.4416 0009630 181.3703 178.7449 14.21785387838672
MOZHAYETS 4
1 27939U 03042A   19244.40446622 -.00000011  00000-0  65535-5 0  9999
2 27939  98.0512  18.8073 0012907 185.7031 174.4028 14.66798668851492
CUBESAT XI 5
1 28895U 05043F   19244.09139227  .00000079  00000-0  23979-4 0  9997
2 28895  97.9696  24.3154 0018109 115.2438 245.0644 14.63685725738372
CUTE-1.7+APD II
1 32785U 08021C   19244.17780855  .00000167  00000-0  23611-4 0  9998
2 32785  97.5529 240.3902 0013668  22.6812 337.5006 14.88336643614763
DELFI C3
1 32789U 08021G   19244.11691042  .00000716  00000-0  51693-4 0  9996
2 32789  97.4586 291.5166 0011003 224.8308 135.2032 15.07074844618171
SEEDS
1 32791U 08021J   19244.00358845  .00000258  00000-0  31567-4 0  9997
2 32791  97.5299 246.2695 0013224 357.7929   2.3229 14.90857997615181
YUBELEINY
1 32953U 08025A   19244.33359270  .00000020  00000-0  75656-4 0  9994
2 32953  82.5008  98.3496 0019334 328.9470  31.0466 12.43091014511584
PRISM (HITOMI)
1 33493U 09002B   19244.33994438  .00001051  00000-0  97497-4 0  9993
2 33493  98.1202 168.1241 0013684 299.6992  60.2865 14.96713262576317
KKS-1 (KISEKI)
1 33499U 09002H   19244.54423827  .00000072  00000-0  18639-4 0  9994
2 33499  98.3461  85.6243 0008625 336.2670  23.8139 14.75458243570266
SWISSCUBE
1 35932U 09051B   19244.07593068  .00000102  00000-0  34188-4 0  9996
2 35932  98.5953  52.2564 0006574 302.2869  57.7691 14.56304315527606
BEESAT
1 35933U 09051C   19243.73090293 +.00000077 +00000-0 +28508-4 0  9991
2 35933 098.5975 053.6915 0004975 321.1109 038.9729 14.56390855527580
ITUPSAT 1
1 35935U 09051E   19243.76257874  .00000042  00000-0  20823-4 0  9990
2 35935  98.6084  53.9566 0007227 315.3456  44.7158 14.55548000527411
XIWANG-1 (HOPE-1)
1 36122U 09072B   19244.44831789 -.00000009  00000-0  86238-4 0  9997
2 36122 100.0750 243.3200 0007262 170.1922 189.9336 13.16351116466713
TISAT 1
1 36799U 10035E   19243.96701722  .00000371  00000-0  43524-4 0  9999
2 36799  98.1653  38.6242 0011895 196.2842 163.7994 14.91142570495831
JUGNU
1 37839U 11058B   19244.18877823  .00000324  00000-0  31002-4 0  9998
2 37839  19.9603 243.0191 0019128  68.6050  12.1059 14.12657100407800
SRMSAT
1 37841U 11058D   19243.57934936  .00000313  00000-0  26984-4 0  9993
2 37841  19.9724 305.0202 0011727 289.2049 215.5796 14.10637481407136
M-CUBED/EXP-1 PRIME
1 37855U 11061F   19243.76861217  .00000913  00000-0  53605-4 0  9990
2 37855 101.7102 177.3880 0173043 217.1492 141.7644 15.05550487427921
HORYU 2
1 38340U 12025D   19243.75275191  .00000134  00000-0  27627-4 0  9990
2 38340  98.3237 284.5439 0010312 245.1806 114.8330 14.75742080392080
STRAND 1
1 39090U 13009E   19244.10991404  .00000015  00000-0  20290-4 0  9995
2 39090  98.4825  88.7982 0010342  70.1414 290.0885 14.35094953341067
SOMP
1 39134U 13015E   19243.82837365 +.00001088 +00000-0 +58620-4 0  9993
2 39134 064.8632 140.2288 0035019 290.8960 068.8419 15.20279089351488
BEESAT 3
1 39135U 13015F   19243.88236514 +.00000898 +00000-0 +53997-4 0  9999
2 39135 064.8692 159.4018 0031245 304.0019 055.8140 15.17567506351115
BEESAT 2
1 39136U 13015G   19243.88164095 +.00000977 +00000-0 +58983-4 0  9992
2 39136 064.8684 163.4385 0023217 304.6995 055.1943 15.16983261351032
CUBEBUG 1
1 39153U 13018D   19244.50920803  .00000161  00000-0  27945-4 0  9990
2 39153  97.9805 342.2222 0015936 319.7536  40.2495 14.80587896342881
ZACUBE
1 39417U 13066B   19244.01849666  .00000163  00000-0  26796-4 0  9994
2 39417  97.5626 253.3436 0059749 149.0073 211.4689 14.81140210312048
TRITON 1
1 39427U 13066M   19244.16720355  .00000188  00000-0  38331-4 0  9999
2 39427  97.6836 216.9714 0112379 287.3378  71.5561 14.67871101309268
GOMX 1
1 39430U 13066Q   19244.43149368  .00000168  00000-0  39276-4 0  9999
2 39430  97.7518 196.0847 0151901  19.0273 341.6512 14.59276135307502
HUMSAT D
1 39433U 13066T   19244.11333748  .00000220  00000-0  26720-4 0  9993
2 39433  97.5477 288.5542 0032009  54.3514 306.0678 14.92235459314173
CUBEBUG 2
1 39440U 13066AA  19244.53249490  .00000155  00000-0  28623-4 0  9998
2 39440  97.6060 238.5653 0079605 200.8354 158.9607 14.75878545311017
FUNCUBE 1
1 39444U 13066AE  19244.51809682  .00000219  00000-0  33109-4 0  9991
2 39444  97.5603 255.8327 0059069 141.0086 219.5409 14.81964575311013
UWE-3
1 39446U 13066AG  19244.00244679  .00000153  00000-0  26896-4 0  9998
2 39446  97.5834 245.1675 0070068 176.2980 183.8765 14.78413063310243
SPROUT
1 39770U 14029E   19244.37299651  .00000232  00000-0  31706-4 0  9992
2 39770  97.8878 347.1964 0008267 192.7952 167.3050 14.87398590285930
UNISAT 6
1 40012U 14033C   19243.87326169  .00000152  00000-0  30152-4 0  9992
2 40012  97.7477 107.2537 0057309 217.4889 142.2318 14.73999943279612
DUCHIFAT 1
1 40021U 14033M   19243.85276821 +.00000275 +00000-0 +33842-4 0  9994
2 40021 097.9226 168.6911 0013197 159.2039 200.9719 14.90667681282598
QB50P1
1 40025U 14033R   19243.75723099  .00000177  00000-0  24832-4 0  9991
2 40025  97.9031 163.3164 0012541 169.2020 190.9469 14.88971756282342
CHUBUSAT 1
1 40300U 14070C   19244.46838058  .00000413  00000-0  20933-4 0  9990
2 40300  97.3235 316.7473 0020257 149.7368 275.9444 15.22145015267391
NUDT-PHONESAT
1 40900U 15049B   19244.55511653  .00001369  00000-0  61239-4 0  9997
2 40900  97.4373 253.1615 0011093 285.0441 195.5265 15.22971481219059
ZDPS 2A
1 40901U 15049C   19244.37686049  .00000448  00000-0  25482-4 0  9997
2 40901  97.4607 249.1251 0012259 308.4021 159.4626 15.17801227218569
ZDPS 2B
1 40902U 15049D   19244.41100230  .00000907  00000-0  48373-4 0  9990
2 40902  97.4551 246.5975 0012100 305.5074 164.3491 15.17644677218540
XW-2A
1 40903U 15049E   19244.41024563  .00001315  00000-0  32799-4 0  9994
2 40903  97.3319 287.5786 0012133 230.4022 227.6019 15.42026608221765
KAITUO 1A
1 40904U 15049F   19244.49212034  .00000471  00000-0  28396-4 0  9995
2 40904  97.4683 245.2265 0013403 313.7287 197.4270 15.15410019218327
OBJECT G
1 40905U 15049G   19244.35310286  .00000080  00000-0  79469-5 0  9993
2 40905  97.4726 242.5642 0014498 308.8994 158.2253 15.14326651218176
XW-2C
1 40906U 15049H   19244.53733566  .00000664  00000-0  38295-4 0  9993
2 40906  97.4692 245.3833 0013427 304.0397 173.0592 15.15731851218330
XW-2D
1 40907U 15049J   19244.57171649  .00000257  00000-0  16866-4 0  9994
2 40907  97.4671 245.0970 0012845 301.2830 176.4103 15.15920937218353
LILACSAT 2
1 40908U 15049K   19243.57037780 -.00000066  00000-0 -16772-7 0  9990
2 40908  97.4798 242.8681 0014787 311.8021 196.7161 15.13831999217988
XW-2F
1 40910U 15049M   19244.39435583  .00000831  00000-0  44894-4 0  9998
2 40910  97.4637 247.0279 0013161 293.6300 172.2764 15.17384753218349
XW-2B
1 40911U 15049N   19244.48342493  .00000650  00000-0  37431-4 0  9994
2 40911  97.4690 245.6715 0012716 302.5279 216.6626 15.15852717218234
KAITUO 1B
1 40912U 15049P   19244.51750461  .00000643  00000-0  33294-4 0  9992
2 40912  97.4502 250.9056 0013249 272.3163 239.2976 15.19705629218672
TIANWANG 1C (TW-1C)
1 40926U 15051B   19244.35935361  .00008957  00000-0  12580-3 0  9996
2 40926  97.1297 290.4696 0009793  95.1039 322.6956 15.56887540221770
TIANWANG 1B (TW-1B)
1 40927U 15051C   19244.26742006  .00008157  00000-0  12189-3 0  9996
2 40927  97.1321 289.5963 0009807 104.4427 318.5705 15.55226773221608
